| time (UTC) | temp F | wind direction | speed knots | gust knots | rain 1hr in | rain 24hr in | rain mn in | humidity % | barometer mb |
| 20260903163005 | 82 | 16 | 1.7 | 10.4 | 0.00 | 0.00 | 0.00 | 50 | 1005.1 |
| 20260903161503 | 82 | 330 | 3.5 | 7.0 | 0.00 | 0.00 | 0.00 | 50 | 1005.3 |
| 20260903160109 | 82 | 305 | 2.6 | 6.1 | 0.00 | 0.00 | 0.00 | 53 | 1005.1 |
| 20260903154600 | 81 | 11 | 3.5 | 7.0 | 0.00 | 0.00 | 0.00 | 53 | 1005.0 |
| 20260903153057 | 80 | 9 | 2.6 | 5.2 | 0.00 | 0.00 | 0.00 | 55 | 1004.8 |
| 20260903151556 | 79 | 89 | 0.0 | 5.2 | 0.00 | 0.00 | 0.00 | 59 | 1004.8 |
| 20260903150057 | 77 | 210 | 1.7 | 5.2 | 0.00 | 0.00 | 0.00 | 59 | 1005.1 |
| 20260903144554 | 76 | 200 | 2.6 | 6.1 | 0.00 | 0.00 | 0.00 | 60 | 1005.1 |
| 20260903143046 | 75 | 185 | 0.9 | 5.2 | 0.00 | 0.00 | 0.00 | 63 | 1005.1 |
| 20260903141542 | 74 | 207 | 0.9 | 3.5 | 0.00 | 0.00 | 0.00 | 65 | 1005.1 |
| 20260903140040 | 74 | 202 | 0.0 | 3.5 | 0.00 | 0.00 | 0.00 | 66 | 1005.1 |
| 20260903134536 | 73 | 122 | 0.0 | 0.0 | 0.00 | 0.00 | 0.00 | 69 | 1005.1 |
| 20260903133034 | 70 | 113 | 0.0 | 0.0 | 0.00 | 0.00 | 0.00 | 74 | 1005.0 |
| 20260903131538 | 67 | 66 | 0.0 | 0.0 | 0.00 | 0.00 | 0.00 | 78 | 1005.0 |
| 20260903130041 | 66 | 86 | 0.0 | 0.0 | 0.00 | 0.00 | 0.00 | 79 | 1005.0 |
| 20260903124532 | 65 | 35 | 0.0 | 0.0 | 0.00 | 0.00 | 0.00 | 79 | 1004.8 |
| 20260903123035 | 64 | 79 | 0.0 | 0.0 | 0.00 | 0.00 | 0.00 | 80 | 1004.7 |
| 20260903121538 | 64 | 332 | 0.0 | 1.7 | 0.00 | 0.00 | 0.00 | 80 | 1004.7 |
| 20260903120029 | 64 | 307 | 0.9 | 3.5 | 0.00 | 0.00 | 0.00 | 78 | 1004.7 |
| 20260903114528 | 64 | 319 | 0.9 | 2.6 | 0.00 | 0.00 | 0.00 | 77 | 1004.5 |
| 20260903113034 | 64 | 321 | 1.7 | 2.6 | 0.00 | 0.00 | 0.00 | 76 | 1004.6 |
| 20260903111526 | 64 | 328 | 0.0 | 1.7 | 0.00 | 0.00 | 0.00 | 75 | 1004.6 |
| 20260903104524 | 64 | 323 | 0.9 | 2.6 | 0.00 | 0.00 | 0.00 | 75 | 1004.8 |
| 20260903103023 | 65 | 119 | 3.5 | 4.3 | 0.00 | 0.00 | 0.00 | 72 | 1004.5 |
| 20260903101522 | 65 | 31 | 0.0 | 3.5 | 0.00 | 0.00 | 0.00 | 72 | 1004.9 |
| 20260903100025 | 66 | 114 | 1.7 | 3.5 | 0.00 | 0.00 | 0.00 | 67 | 1004.8 |
| 20260903094543 | 65 | 59 | 0.0 | 0.9 | 0.00 | 0.00 | 0.00 | 68 | 1005.1 |
| 20260903093019 | 68 | 329 | 0.0 | 0.9 | 0.00 | 0.00 | 0.00 | 61 | 1005.0 |
| 20260903091521 | 69 | 321 | 0.0 | 1.7 | 0.00 | 0.00 | 0.00 | 58 | 1004.9 |
| 20260903090017 | 68 | 309 | 2.6 | 5.2 | 0.00 | 0.00 | 0.00 | 59 | 1004.9 |
| 20260903084516 | 65 | 316 | 0.0 | 1.7 | 0.00 | 0.00 | 0.00 | 70 | 1005.1 |
| 20260903083014 | 67 | 1 | 2.6 | 3.5 | 0.00 | 0.00 | 0.00 | 66 | 1005.0 |
| 20260903081512 | 70 | 230 | 0.0 | 0.0 | 0.00 | 0.00 | 0.00 | 57 | 1004.7 |
| 20260903080011 | 67 | 326 | 0.0 | 0.0 | 0.00 | 0.00 | 0.00 | 62 | 1004.8 |
| 20260903074510 | 67 | 76 | 0.0 | 0.0 | 0.00 | 0.00 | 0.00 | 64 | 1004.8 |
| 20260903073010 | 68 | 90 | 2.6 | 4.3 | 0.00 | 0.00 | 0.00 | 60 | 1005.0 |
| 20260903071505 | 69 | 234 | 0.0 | 1.7 | 0.00 | 0.00 | 0.00 | 54 | 1004.8 |
| 20260903070004 | 71 | 250 | 0.9 | 1.7 | 0.00 | 0.00 | 0.00 | 51 | 1004.8 |
| 20260903064503 | 71 | 260 | 1.7 | 3.5 | 0.00 | 0.00 | 0.00 | 50 | 1004.7 |
| 20260903063005 | 70 | 240 | 1.7 | 2.6 | 0.00 | 0.00 | 0.00 | 53 | 1004.7 |
| 20260903061501 | 72 | 242 | 1.7 | 3.5 | 0.00 | 0.00 | 0.00 | 51 | 1004.7 |
| 20260903060057 | 71 | 240 | 2.6 | 3.5 | 0.00 | 0.00 | 0.00 | 51 | 1004.5 |
| 20260903054557 | 69 | 228 | 0.9 | 1.7 | 0.00 | 0.00 | 0.00 | 56 | 1004.3 |
| 20260903053107 | 70 | 231 | 1.7 | 3.5 | 0.00 | 0.00 | 0.00 | 55 | 1004.3 |
| 20260903051556 | 70 | 235 | 1.7 | 2.6 | 0.00 | 0.00 | 0.00 | 56 | 1004.4 |
| 20260903050048 | 70 | 242 | 1.7 | 2.6 | 0.00 | 0.00 | 0.00 | 56 | 1004.1 |
| 20260903044554 | 70 | 231 | 1.7 | 2.6 | 0.00 | 0.00 | 0.00 | 56 | 1004.4 |
| 20260903043047 | 71 | 223 | 0.9 | 2.6 | 0.00 | 0.00 | 0.00 | 55 | 1004.5 |
| 20260903041548 | 72 | 231 | 1.7 | 2.6 | 0.00 | 0.00 | 0.00 | 53 | 1004.4 |
| 20260903040047 | 75 | 234 | 1.7 | 3.5 | 0.00 | 0.00 | 0.00 | 47 | 1004.4 |
| 20260903034547 | 76 | 257 | 1.7 | 2.6 | 0.00 | 0.00 | 0.00 | 45 | 1004.5 |
| 20260903033052 | 76 | 250 | 1.7 | 2.6 | 0.00 | 0.00 | 0.00 | 42 | 1004.3 |
| 20260903031545 | 76 | 240 | 1.7 | 2.6 | 0.00 | 0.00 | 0.00 | 44 | 1004.4 |
| 20260903030046 | 77 | 202 | 1.7 | 3.5 | 0.00 | 0.00 | 0.00 | 43 | 1004.2 |
| 20260903024546 | 80 | 245 | 1.7 | 2.6 | 0.00 | 0.00 | 0.00 | 38 | 1004.2 |
| 20260903023044 | 81 | 240 | 2.6 | 3.5 | 0.00 | 0.00 | 0.00 | 36 | 1004.0 |
| 20260903021555 | 82 | 245 | 1.7 | 2.6 | 0.00 | 0.00 | 0.00 | 34 | 1003.7 |
| 20260903020043 | 82 | 245 | 0.9 | 1.7 | 0.00 | 0.00 | 0.00 | 33 | 1003.7 |
| 20260903014547 | 83 | 217 | 0.0 | 0.0 | 0.00 | 0.00 | 0.00 | 31 | 1003.5 |
| 20260903013042 | 83 | 214 | 0.0 | 0.0 | 0.00 | 0.00 | 0.00 | 31 | 1003.3 |
| 20260903011544 | 84 | 200 | 0.0 | 1.7 | 0.00 | 0.00 | 0.00 | 32 | 1003.3 |
| 20260903010048 | 87 | 195 | 2.6 | 4.3 | 0.00 | 0.00 | 0.00 | 30 | 1003.1 |
| 20260903004552 | 91 | 183 | 4.3 | 6.1 | 0.00 | 0.00 | 0.00 | 26 | 1003.0 |
| 20260903003040 | 94 | 184 | 5.2 | 9.6 | 0.00 | 0.00 | 0.00 | 23 | 1003.2 |
| 20260903001539 | 96 | 201 | 8.7 | 13.0 | 0.00 | 0.00 | 0.00 | 21 | 1003.0 |
| 20260903000039 | 97 | 198 | 7.8 | 13.0 | 0.00 | 0.00 | 0.00 | 22 | 1003.0 |
| 20260902234537 | 98 | 181 | 9.6 | 14.8 | 0.00 | 0.00 | 0.00 | 22 | 1003.1 |
| 20260902233038 | 98 | 210 | 7.8 | 13.0 | 0.00 | 0.00 | 0.00 | 22 | 1003.2 |
| 20260902231545 | 98 | 169 | 6.1 | 10.4 | 0.00 | 0.00 | 0.00 | 24 | 1003.3 |
| 20260902230032 | 97 | 145 | 4.3 | 8.7 | 0.00 | 0.00 | 0.00 | 32 | 1003.3 |
| 20260902224530 | 96 | 152 | 7.0 | 10.4 | 0.00 | 0.00 | 0.00 | 32 | 1003.3 |
| 20260902223028 | 97 | 136 | 4.3 | 9.6 | 0.00 | 0.00 | 0.00 | 34 | 1003.5 |
| 20260902221526 | 96 | 162 | 6.1 | 10.4 | 0.00 | 0.00 | 0.00 | 33 | 1003.7 |
| 20260902220029 | 96 | 139 | 8.7 | 13.0 | 0.00 | 0.00 | 0.00 | 35 | 1003.9 |
| 20260902214523 | 96 | 131 | 7.8 | 13.9 | 0.00 | 0.00 | 0.00 | 36 | 1004.1 |
| 20260902213020 | 95 | 139 | 9.6 | 13.9 | 0.00 | 0.00 | 0.00 | 36 | 1004.3 |
| 20260902211518 | 95 | 107 | 6.1 | 12.2 | 0.00 | 0.00 | 0.00 | 34 | 1004.5 |
| 20260902210016 | 95 | 179 | 6.1 | 13.9 | 0.00 | 0.00 | 0.00 | 35 | 1004.7 |
| 20260902204529 | 95 | 159 | 6.1 | 10.4 | 0.00 | 0.00 | 0.00 | 37 | 1004.8 |
| 20260902203011 | 95 | 169 | 6.1 | 11.3 | 0.00 | 0.00 | 0.00 | 36 | 1005.1 |
| 20260902201519 | 94 | 117 | 7.0 | 12.2 | 0.00 | 0.00 | 0.00 | 38 | 1005.1 |
| 20260902200008 | 94 | 139 | 5.2 | 10.4 | 0.00 | 0.00 | 0.00 | 36 | 1005.3 |
| 20260902194508 | 93 | 136 | 4.3 | 11.3 | 0.00 | 0.00 | 0.00 | 38 | 1005.7 |
| 20260902193002 | 93 | 106 | 5.2 | 11.3 | 0.00 | 0.00 | 0.00 | 39 | 1005.7 |
| 20260902191503 | 93 | 94 | 6.1 | 9.6 | 0.00 | 0.00 | 0.00 | 39 | 1005.8 |
| 20260902190058 | 92 | 73 | 3.5 | 7.8 | 0.00 | 0.00 | 0.00 | 40 | 1006.1 |
| 20260902184555 | 91 | 151 | 1.7 | 7.8 | 0.00 | 0.00 | 0.00 | 38 | 1006.3 |
| 20260902183056 | 91 | 104 | 3.5 | 7.8 | 0.00 | 0.00 | 0.00 | 39 | 1006.6 |
| 20260902181559 | 91 | 108 | 3.5 | 7.0 | 0.00 | 0.00 | 0.00 | 39 | 1006.9 |
| 20260902180057 | 90 | 123 | 1.7 | 6.1 | 0.00 | 0.00 | 0.00 | 41 | 1007.0 |
| 20260902174545 | 90 | 244 | 3.5 | 8.7 | 0.00 | 0.00 | 0.00 | 39 | 1007.1 |
| 20260902173043 | 89 | 174 | 3.5 | 7.8 | 0.00 | 0.00 | 0.00 | 42 | 1007.3 |
| 20260902171542 | 88 | 189 | 4.3 | 6.1 | 0.00 | 0.00 | 0.00 | 43 | 1007.4 |
| 20260902170038 | 87 | 156 | 1.7 | 4.3 | 0.00 | 0.00 | 0.00 | 44 | 1007.6 |
| 20260902164547 | 87 | 256 | 2.6 | 7.0 | 0.00 | 0.00 | 0.00 | 44 | 1007.7 |